Content
SEND FEEDBACK

Daily
Averages
Monthly
Summary
United States of America

ENDERLIN, NORTH DAKOTA


Home > North America > United States > North Dakota
Elevation: 1120 feet     Latitude: 46 37N     Longitude: 097 36W

WEATHER
 
SELECT A DAY
Number of Records: 63,622;   Date Range: 12/15/10 - 8/29/14
 
SHARE

PRINT THIS DATA

[ ← Previous Day ]
WEATHER ALMANAC - APRIL 25, 2014
[ Next Day → ]
[ °C ]   °F
Weather ElementAverageHighLow
Temperature40.8 °F51.8 °F (2:15 pm)28.4 °F (6:35 am)
Dewpoint38.5 °F44.6 °F (10:35 am)28.4 °F (6:35 am)
Humidity92.1 %100 % (12:35 am)71 % (2:15 pm)
Barometer29.81 in29.92 in (9:35 pm)29.72 in (12:35 am)
Wind Speed7.6 mph16.1 mph (4:35 pm)
Wind Gust21.9 mph (5:15 pm)
Weather ElementAverage
Visibility8.3 mi
Wind DirectionE (91.5 °)

Weather ElementTotal
Precipitation---
Heating Degree Days24.9 (Base 65)
Averaged from 71 records on April 25, 2014
WEATHER CONDITIONS BREAKOUT
WIND DIRECTION BREAKOUT
WEATHER BY HOUR - APRIL 25, 2014
[ °C ]   °F
Local TimeTemperatureDewpointHumidityBarometerVisibilityWind DirectionWind SpeedGust SpeedPrecipitationEventsConditions
12:35 AM35.6 °F35.6 °F100 %29.72 in10.0 miWNW (300°)4.6 mphClear
12:55 AM32.0 °F32.0 °F100 %29.72 in10.0 miWNW (300°)8.1 mphClear
1:15 AM35.6 °F35.6 °F100 %29.73 in10.0 miWNW (300°)9.2 mphClear
1:35 AM35.6 °F35.6 °F100 %29.73 in10.0 miWest (280°)8.1 mphClear
1:55 AM35.6 °F35.6 °F100 %29.73 in10.0 miWNW (300°)9.2 mphClear
2:15 AM32.0 °F32.0 °F100 %29.72 in10.0 miNW (310°)6.9 mphClear
2:35 AM32.0 °F32.0 °F100 %29.72 in10.0 miCalmClear
2:55 AM33.8 °F33.8 °F100 %29.72 in10.0 miWNW (290°)6.9 mphClear
3:15 AM32.0 °F32.0 °F100 %29.72 in10.0 miWNW (290°)3.5 mphClear
3:35 AM32.0 °F32.0 °F100 %29.73 in10.0 miSW (230°)3.5 mphClear
3:55 AM32.0 °F32.0 °F100 %29.72 in10.0 miWest (270°)3.5 mphClear
4:15 AM33.8 °F33.8 °F100 %29.73 in10.0 miCalmClear
4:35 AM32.0 °F32.0 °F100 %29.74 in9.0 miSouth (190°)5.8 mphClear
4:55 AM32.0 °F32.0 °F100 %29.74 in8.0 miCalmClear
5:15 AM32.0 °F32.0 °F100 %29.74 in2.5 miNE (50°)4.6 mphClear
5:35 AM32.0 °F32.0 °F100 %29.75 in6.0 miNE (50°)3.5 mphClear
5:55 AM32.0 °F32.0 °F100 %29.75 in2.5 miCalmClear
6:15 AM32.0 °F32.0 °F100 %29.76 in0.2 miNNE (30°)3.5 mphFogLight Freezing Fog
6:35 AM28.4 °F28.4 °F100 %29.76 in0.2 miCalmFogLight Freezing Fog
6:55 AM32.0 °F32.0 °F100 %29.76 in0.2 miCalmFogLight Freezing Fog
7:15 AM30.2 °F30.2 °F100 %29.77 in0.2 miCalmFogLight Freezing Fog
7:35 AM32.0 °F32.0 °F100 %29.78 in0.2 miCalmFogLight Freezing Fog
7:55 AM32.0 °F32.0 °F100 %29.78 in0.2 miCalmFogFog
8:15 AM33.8 °F33.8 °F100 %29.78 in0.2 miSE (140°)3.5 mphOvercast
8:35 AM35.6 °F35.6 °F100 %29.78 in0.2 miSE (130°)5.8 mphFogFog
8:55 AM35.6 °F35.6 °F100 %29.78 in1.8 miSE (130°)4.6 mphOvercast
9:15 AM37.4 °F37.4 °F100 %29.78 in4.0 miEast (100°)4.6 mphMostly Cloudy
9:35 AM39.2 °F39.2 °F100 %29.78 in3.0 miESE (110°)4.6 mphOvercast
9:55 AM41.0 °F41.0 °F100 %29.79 in10.0 miESE (120°)4.6 mphMostly Cloudy
10:15 AM41.0 °F41.0 °F100 %29.79 in10.0 miCalmPartly Cloudy
10:35 AM44.6 °F44.6 °F100 %29.79 in10.0 miENE (70°)5.8 mphClear
10:55 AM46.4 °F44.6 °F93 %29.79 in10.0 miEast (100°)5.8 mphClear
11:15 AM46.4 °F44.6 °F93 %29.79 in10.0 miENE (70°)6.9 mphPartly Cloudy
11:35 AM46.4 °F44.6 °F93 %29.80 in10.0 miENE (70°)8.1 mphScattered Clouds
11:55 AM46.4 °F44.6 °F93 %29.80 in10.0 miENE (60°)9.2 mphMostly Cloudy
12:15 PM46.4 °F44.6 °F93 %29.81 in10.0 miNE (50°)6.9 mphScattered Clouds
12:35 PM48.2 °F44.6 °F87 %29.81 in10.0 miENE (70°)6.9 mphScattered Clouds
12:55 PM50.0 °F44.6 °F82 %29.81 in10.0 miNNE (30°)5.8 mphMostly Cloudy
1:15 PM50.0 °F44.6 °F82 %29.82 in10.0 miNE (50°)10.4 mphScattered Clouds
1:35 PM50.0 °F44.6 °F82 %29.82 in10.0 miENE (60°)12.7 mphMostly Cloudy
1:55 PM50.0 °F44.6 °F82 %29.82 in10.0 miENE (60°)11.5 mphMostly Cloudy
2:15 PM51.8 °F42.8 °F71 %29.82 in10.0 miENE (70°)9.2 mph16.1 mphScattered Clouds
2:35 PM51.8 °F44.6 °F76 %29.82 in10.0 miENE (70°)12.7 mph18.4 mphMostly Cloudy
2:55 PM50.0 °F44.6 °F82 %29.83 in10.0 miNE (50°)12.7 mphMostly Cloudy
3:15 PM48.2 °F44.6 °F87 %29.84 in10.0 miENE (60°)10.4 mph16.1 mphMostly Cloudy
3:35 PM50.0 °F42.8 °F76 %29.83 in10.0 miNE (50°)13.8 mphScattered Clouds
3:55 PM50.0 °F42.8 °F76 %29.84 in10.0 miNE (50°)12.7 mphPartly Cloudy
4:15 PM50.0 °F42.8 °F76 %29.83 in10.0 miENE (60°)15.0 mphScattered Clouds
4:35 PM50.0 °F42.8 °F76 %29.83 in10.0 miENE (70°)16.1 mphScattered Clouds
4:55 PM50.0 °F41.0 °F71 %29.83 in10.0 miENE (70°)13.8 mphPartly Cloudy
5:15 PM50.0 °F41.0 °F71 %29.83 in10.0 miENE (60°)15.0 mph21.9 mphPartly Cloudy
5:35 PM50.0 °F41.0 °F71 %29.83 in10.0 miNE (50°)12.7 mph18.4 mphPartly Cloudy
5:55 PM50.0 °F41.0 °F71 %29.84 in10.0 miENE (60°)12.7 mph21.9 mphClear
6:15 PM50.0 °F41.0 °F71 %29.85 in10.0 miNE (50°)13.8 mph18.4 mphPartly Cloudy
6:35 PM48.2 °F41.0 °F76 %29.86 in10.0 miENE (60°)15.0 mphClear
6:55 PM48.2 °F41.0 °F76 %29.86 in10.0 miENE (60°)13.8 mph19.6 mphClear
7:15 PM48.2 °F41.0 °F76 %29.87 in10.0 miEast (80°)16.1 mphClear
7:35 PM46.4 °F41.0 °F81 %29.87 in10.0 miENE (70°)13.8 mphClear
7:55 PM44.6 °F41.0 °F87 %29.88 in10.0 miENE (70°)12.7 mphClear
8:15 PM44.6 °F41.0 °F87 %29.88 in10.0 miENE (60°)9.2 mphClear
8:35 PM42.8 °F42.8 °F100 %29.89 in10.0 miENE (60°)8.1 mphScattered Clouds
8:55 PM41.0 °F41.0 °F100 %29.90 in10.0 miENE (60°)6.9 mphPartly Cloudy
9:15 PM41.0 °F41.0 °F100 %29.91 in10.0 miENE (60°)6.9 mphClear
9:35 PM39.2 °F39.2 °F100 %29.92 in10.0 miENE (60°)6.9 mphClear
9:55 PM39.2 °F39.2 °F100 %29.92 in10.0 miENE (60°)9.2 mphClear
10:15 PM39.2 °F39.2 °F100 %29.91 in10.0 miENE (60°)10.4 mphClear
10:35 PM39.2 °F39.2 °F100 %29.90 in10.0 miENE (60°)8.1 mphClear
10:55 PM37.4 °F37.4 °F100 %29.91 in10.0 miENE (60°)8.1 mphClear
11:15 PM37.4 °F37.4 °F100 %29.91 in10.0 miEast (80°)6.9 mphClear
11:35 PM37.4 °F37.4 °F100 %29.91 in10.0 miEast (80°)9.2 mphClear
11:55 PM37.4 °F37.4 °F100 %29.91 in10.0 miEast (80°)9.2 mphClear
Hourly data recorded from KBAC, located miles away from Enderlin, North Dakota







STORIES FROM OUR PARTNERS